Volver al catálogo

COSMOS 2251 DEB

ActivoLEO
NORAD 34910·DEBRIS·🇷🇺 Russia

Lanzado Jun 16, 1993 desde Plesetsk Cosmodrome

Loading…

Próximos Pases (próximas 24 horas)

TLE

ActualizadoSource: Space-Track

Época: Sep 13, 2026, 08:22 UTC

1 34910U 93036ADF 26256.34922152  .00000186  00000-0  20576-3 0  9995
2 34910  73.8756  27.9014 0466058  99.7412 294.1613 13.38028262851970

Sigue COSMOS 2251 DEB en tiempo real con AllMySat

Download on the App Store